This is the latest recevied weather packets stored in our database for station/object W5ADC. If no packets are shown the sender has not sent any weather packets the latest 10 day(s).
| Time | Temp. | Humidity | Pressure | Rain* | Wind** | Luminosity | Snow |
|---|---|---|---|---|---|---|---|
| 1778014937 | 31.67° C | 59% | 1000 hPa | 0 mm | - | 276 W/m² | - |
| 1778014635 | 31.11° C | 59% | 1000.3 hPa | 0 mm | - | 473 W/m² | - |
| 1778014333 | 30.56° C | 61% | 1000.3 hPa | 0 mm | - | 648 W/m² | - |
| 1778014029 | 30.56° C | 62% | 1000.2 hPa | 0 mm | - | 600 W/m² | - |
| 1778013727 | 31.67° C | 60% | 1000.5 hPa | 0 mm | - | 208 W/m² | - |
| 1778013424 | 31.11° C | 61% | 1000.5 hPa | 0 mm | - | 775 W/m² | - |
| 1778013121 | 30.56° C | 63% | 1000.7 hPa | 0 mm | - | 602 W/m² | - |
| 1778012816 | 30.56° C | 62% | 1000.6 hPa | 0 mm | - | 368 W/m² | - |
| 1778012513 | 30.56° C | 62% | 1000.5 hPa | 0 mm | - | 525 W/m² | - |
| 1778012209 | 30.56° C | 63% | 1000.6 hPa | 0 mm | - | 798 W/m² | - |
| 1778011907 | 30° C | 64% | 1000.7 hPa | 0 mm | - | 741 W/m² | - |
| 1778011605 | 30.56° C | 63% | 1000.7 hPa | 0 mm | - | 627 W/m² | - |
| 1778011302 | 30° C | 64% | 1000.8 hPa | 0 mm | - | 606 W/m² | - |
| 1778010998 | 30° C | 63% | 1001 hPa | 0 mm | - | 683 W/m² | - |
| 1778010695 | 30° C | 64% | 1001 hPa | 0 mm | - | 712 W/m² | - |
| 1778010393 | 30° C | 64% | 1001.1 hPa | 0 mm | - | 750 W/m² | - |
| 1778010088 | 30° C | 65% | 1000.8 hPa | 0 mm | - | 725 W/m² | - |
| 1778009785 | 29.44° C | 65% | 1001.1 hPa | 0 mm | - | 685 W/m² | - |
| 1778009482 | 29.44° C | 66% | 1001.1 hPa | 0 mm | - | 670 W/m² | - |
| 1778009181 | 29.44° C | 66% | 1001 hPa | 0 mm | - | 538 W/m² | - |
| 1778008878 | 29.44° C | 66% | 1000.8 hPa | 0 mm | - | 700 W/m² | - |
| 1778008576 | 28.89° C | 67% | 1001.1 hPa | 0 mm | - | 703 W/m² | - |
| 1778008274 | 28.89° C | 67% | 1001 hPa | 0 mm | - | 824 W/m² | - |
| 1778007969 | 28.89° C | 67% | 1001 hPa | 0 mm | - | 536 W/m² | - |
| 1778007664 | 29.44° C | 66% | 1001.1 hPa | 0 mm | - | 598 W/m² | - |
* Rain latest hour (hover to see other rain measurements)
** Current wind speed in m/s (hover to see current wind gust speed)